Theta_e
303 302 301 301 302 303 304 304 305 306 307 306 306 305 304 304 305 304 300 303 297 292 293 294 295 292 292 294 290 294 293 294 294 288 288 288 288 290 291 294 294 293 292 292 295 292 289 308 309 304 313 315 315 316
302 302 301 302 302 303 303 304 305 306 307 306 306 306 305 305 305 304 297 303 303 295 293 297 299 299 298 298 296 296 293 293 297 293 293 292 289 293 291 286 297 294 297 295 298 297 310 312 314 318 319 317 314 317
302 301 301 302 302 303 303 304 305 305 306 306 306 306 305 305 305 303 299 301 299 293 293 293 294 298 299 300 303 294 295 298 297 300 297 296 291 295 291 290 292 297 306 301 302 304 307 311 315 316 315 315 316 318
302 302 301 302 302 303 304 304 305 305 305 306 306 306 305 305 305 304 299 302 298 293 287 290 297 296 299 300 299 300 300 300 300 300 297 296 292 300 294 297 295 296 302 303 304 307 307 310 314 315 314 315 316 317
303 302 302 302 302 303 304 304 304 304 305 305 306 306 305 305 304 303 301 301 300 293 287 290 295 296 299 301 297 299 299 297 297 295 294 294 299 298 299 299 296 302 299 299 300 308 310 312 314 316 314 314 316 317
303 302 302 302 302 303 304 304 304 304 305 305 304 304 305 304 304 300 294 300 302 299 291 285 293 294 298 298 297 297 298 298 298 295 295 299 301 299 294 293 299 304 306 305 305 309 310 312 318 316 315 316 316 317
303 303 303 302 302 303 303 304 304 304 304 304 305 304 304 304 302 297 294 300 302 302 292 287 289 296 299 298 297 297 298 297 297 296 294 296 298 299 295 290 298 302 306 305 306 308 310 311 312 316 316 316 315 318
303 304 304 303 303 303 303 304 304 304 304 304 304 305 305 301 299 297 303 304 303 298 295 286 287 291 298 293 293 299 296 296 295 295 298 296 298 298 291 297 299 301 302 302 304 310 312 315 316 315 316 315 315 315
303 303 304 304 304 304 304 304 304 304 304 303 303 302 300 299 296 298 304 302 302 297 288 287 286 283 296 294 293 294 296 288 298 293 294 296 292 288 295 298 299 300 301 303 306 307 311 312 313 314 313 314 314 314
302 303 304 305 304 304 304 304 304 304 304 301 299 296 292 297 302 303 297 294 293 293 292 287 291 286 292 291 290 289 292 289 288 292 298 291 290 297 301 302 301 301 303 304 304 305 310 311 313 314 313 315 316 317
302 303 303 304 304 305 304 304 304 304 300 297 293 291 297 301 298 295 289 288 289 286 290 291 290 287 294 288 288 291 289 291 286 289 290 289 290 297 301 301 302 306 308 307 308 309 312 314 314 314 314 316 316 318
302 302 303 303 303 304 305 304 304 301 297 297 296 299 298 294 291 287 286 288 287 285 290 289 290 291 292 290 287 291 288 289 285 293 289 287 295 300 300 301 304 306 305 306 308 310 312 313 314 315 313 315 316 317
302 302 302 303 303 304 303 303 304 303 300 301 296 291 289 289 283 283 282 285 285 290 292 291 289 291 294 294 291 289 287 285 289 285 286 290 296 299 300 301 303 305 305 306 305 307 308 307 309 311 312 315 314 313
301 302 302 303 303 303 304 303 303 301 298 291 288 283 285 285 285 286 287 288 291 292 292 292 291 290 294 290 290 286 290 290 286 285 286 293 297 299 301 302 302 303 304 306 304 305 305 305 304 306 309 312 313 314
301 301 302 302 303 303 303 303 302 301 297 290 290 284 286 290 291 292 292 292 294 295 293 291 291 291 292 289 289 287 286 285 285 284 291 297 299 300 300 302 303 301 302 304 305 305 305 305 305 305 308 310 315 316
301 301 299 301 302 302 303 301 300 300 295 292 291 289 291 289 290 292 293 292 296 294 293 293 289 288 287 288 286 285 285 283 285 292 297 300 301 302 302 303 302 302 301 302 301 301 302 304 305 305 306 307 309 313
300 297 300 301 301 302 300 299 298 294 292 291 291 293 291 290 289 292 293 294 296 293 289 291 286 284 288 286 285 286 284 285 292 296 299 299 299 300 302 301 302 301 300 301 302 303 302 304 304 304 303 304 305 306
296 299 300 301 302 299 299 298 294 292 289 291 290 292 292 292 291 293 294 295 294 292 292 290 293 287 285 283 284 286 288 295 297 298 299 301 302 302 302 302 302 302 301 301 301 302 303 303 302 302 303 304 304 304
298 300 301 302 302 298 294 296 295 290 291 292 293 293 293 294 295 295 295 295 295 295 293 292 289 286 287 290 290 292 293 295 295 298 300 301 302 302 302 302 302 302 301 301 301 300 301 301 301 302 303 303 302 301
300 300 301 302 301 297 292 293 296 292 290 293 294 293 292 293 294 295 296 294 294 293 291 289 288 290 291 293 294 294 296 300 300 298 299 300 302 303 303 302 301 303 302 303 302 298 302 301 302 301 301 300 301 300
299 301 301 301 300 297 294 293 293 291 292 292 294 292 291 293 294 293 293 294 292 290 289 291 292 293 295 296 296 296 297 299 297 298 298 299 301 303 304 304 304 303 302 303 302 300 299 299 300 302 301 301 301 301
299 300 299 299 294 292 293 294 292 293 292 293 292 291 290 290 290 291 292 292 290 292 293 293 293 294 295 296 297 297 298 300 300 298 297 297 299 299 300 302 304 303 303 302 302 301 301 301 301 301 300 300 300 301
299 298 295 293 289 288 288 293 290 290 288 289 290 289 290 290 291 294 291 292 293 295 295 296 296 297 296 298 299 298 299 300 299 299 298 298 299 300 301 302 303 303 303 304 304 302 302 292 298 301 301 301 301 301
296 291 288 286 288 285 289 287 288 288 289 287 286 285 287 289 291 291 288 292 294 296 295 295 296 295 297 297 295 296 297 300 300 299 300 300 299 299 301 302 303 303 303 306 306 305 304 303 297 302 301 301 301 300
284 283 286 281 287 285 284 284 285 286 284 285 284 285 287 288 287 287 287 290 293 294 295 295 296 296 294 296 297 297 299 298 299 298 298 300 301 302 302 303 303 302 304 304 304 305 306 305 304 302 299 300 300 300
278 283 284 286 285 285 284 282 283 283 285 284 285 287 288 287 284 282 287 290 293 295 295 295 293 293 296 297 296 296 296 298 298 297 296 297 297 299 300 300 300 301 301 303 304 304 304 304 304 302 301 299 292 299
278 282 287 289 288 287 285 286 287 286 283 281 284 284 284 281 281 287 293 295 295 298 299 298 296 294 292 293 295 296 297 298 297 295 296 296 295 296 296 294 293 296 298 301 304 304 304 304 304 305 305 304 303 301
286 286 282 284 286 285 283 284 284 283 285 287 285 281 280 282 284 290 292 297 300 299 297 297 298 296 293 292 292 293 296 297 299 298 297 297 296 295 294 295 296 287 297 298 297 303 303 303 303 303 303 303 304 304
285 287 287 283 284 284 285 285 285 288 290 288 283 282 284 290 293 291 293 297 300 298 296 294 295 295 293 292 291 290 291 293 295 292 291 290 291 292 292 293 295 296 296 297 289 290 294 299 302 302 303 304 305 305
285 287 285 284 283 282 287 288 288 289 289 289 289 288 287 289 292 295 294 293 293 294 297 295 293 295 293 292 289 287 288 289 288 289 289 288 287 289 291 291 291 293 294 295 295 296 290 298 298 303 300 297 297 294
287 287 285 284 284 287 289 290 289 288 288 288 288 286 286 288 290 292 292 293 293 294 293 292 291 290 289 288 289 289 285 287 288 287 287 288 288 288 288 289 290 292 292 292 291 290 291 291 290 290 290 291 292 293
286 285 284 281 284 287 287 286 287 286 287 286 285 287 287 286 284 289 290 289 291 291 290 292 292 289 288 287 287 287 285 287 287 287 286 286 286 286 287 288 290 290 289 289 288 288 287 286 286 286 286 285 286 286
284 284 283 283 282 282 286 284 284 283 284 283 284 285 285 284 282 286 290 289 289 291 291 289 289 288 287 287 287 287 286 287 285 284 283 282 282 283 286 287 287 288 288 287 286 286 285 285 284 284 284 284 284 284
Wind_Speed
23 22 24 24 25 25 26 26 26 25 26 9 11 8 3 4 13 2 0 0 2 3 5 2 1 3 3 2 2 4 6 5 5 8 7 8 9 12 9 8 11 11 9 7 7 9 15 6 11 14 6 3 8 14
21 21 21 23 23 24 25 25 24 23 24 12 11 12 5 4 12 2 1 2 1 3 5 2 7 5 3 2 3 1 3 2 0 6 6 5 7 7 14 15 13 11 11 12 9 7 3 16 13 16 7 6 7 13
23 22 21 22 23 24 24 23 22 22 23 14 11 10 8 7 10 4 1 1 1 2 5 4 3 0 2 6 2 2 1 2 2 2 2 4 6 4 8 14 18 19 7 10 12 17 11 13 14 9 7 5 3 7
23 22 20 21 22 23 23 21 20 20 20 22 17 6 9 4 2 3 1 1 2 1 3 2 2 4 1 2 3 4 3 2 1 2 4 3 4 4 9 3 8 14 12 15 11 8 4 8 14 8 8 5 7 5
21 21 20 20 21 22 20 19 19 18 17 18 18 13 8 6 5 2 1 1 0 1 3 5 7 2 2 2 5 7 6 2 1 2 2 4 2 4 4 2 6 5 14 10 12 7 6 8 16 17 15 14 12 12
21 20 20 20 20 21 20 19 19 20 20 17 13 11 8 8 5 0 1 2 0 1 3 4 3 2 1 2 6 8 6 2 2 3 3 3 3 4 5 8 14 5 4 1 5 15 13 20 9 18 17 15 12 10
24 20 19 21 21 20 20 19 19 20 20 19 12 8 7 6 2 0 1 3 1 1 2 4 5 1 1 2 3 3 5 3 3 3 5 4 3 5 3 6 15 11 11 8 7 12 10 16 13 12 16 13 12 11
25 22 19 19 20 20 20 20 20 21 21 18 12 9 6 2 1 2 1 5 2 2 2 3 4 4 1 1 3 4 5 4 4 4 3 5 4 4 7 12 12 15 16 17 13 5 17 16 12 11 12 13 12 10
25 24 22 20 20 20 20 20 21 22 21 16 11 4 1 1 1 2 12 2 1 2 2 2 3 3 4 1 1 2 2 5 4 5 5 4 3 7 11 10 9 8 9 12 11 12 15 17 18 14 15 17 17 13
25 24 23 21 19 19 20 21 22 22 21 9 3 2 1 1 11 7 2 2 1 0 2 3 3 3 3 2 3 2 5 3 4 6 4 5 6 14 11 11 8 9 13 15 13 15 13 17 17 19 21 16 14 11
25 24 24 24 23 21 21 21 23 19 7 4 4 2 4 9 2 1 3 2 2 3 2 3 3 4 3 3 2 4 2 2 3 3 4 5 5 6 6 9 10 9 11 14 11 13 18 17 16 16 15 14 13 11
25 25 25 25 24 22 20 21 20 5 2 3 4 3 3 3 2 4 3 3 3 4 3 4 4 3 2 2 2 3 3 3 5 4 4 4 1 3 3 5 8 7 5 6 6 11 8 7 7 11 13 14 13 12
26 26 25 25 24 21 22 22 17 7 2 1 1 2 3 4 6 6 7 3 6 5 4 8 7 2 3 3 4 2 4 4 2 4 3 1 1 1 4 7 8 9 7 10 5 3 9 11 8 7 14 15 15 12
27 27 26 25 19 21 21 20 12 1 1 3 5 7 5 3 2 2 3 6 6 6 9 9 6 3 2 2 2 4 3 4 3 1 3 2 4 1 4 9 8 8 7 15 12 6 15 15 10 9 14 11 14 12
27 29 27 12 20 23 22 15 7 2 2 4 3 6 4 4 5 6 7 6 5 5 7 6 5 3 1 3 3 4 6 4 4 4 3 5 5 5 2 8 5 5 9 14 9 6 10 7 14 11 6 11 13 11
28 22 3 16 25 24 19 8 2 1 3 2 3 3 3 4 5 4 7 8 3 8 3 2 3 4 3 5 4 4 8 6 5 5 5 8 10 6 6 6 5 7 11 13 14 11 10 12 13 11 14 14 11 9
21 4 11 23 25 23 9 2 2 4 2 3 2 2 4 6 7 5 7 5 6 5 4 3 6 5 5 5 6 5 6 6 7 8 8 8 6 8 9 11 11 13 14 12 13 15 14 12 12 14 14 11 10 10
4 8 21 24 19 6 3 4 2 2 4 1 4 7 5 3 6 6 6 5 4 4 3 3 2 6 4 7 6 3 3 4 8 8 10 11 10 9 12 13 13 12 13 13 13 13 13 14 14 10 10 8 8 9
14 16 19 18 7 3 3 4 3 3 2 2 4 4 4 5 4 6 6 5 1 1 1 2 5 5 4 4 6 9 5 9 8 5 5 9 11 12 12 13 13 13 14 14 13 10 10 12 10 8 7 7 7 7
17 12 10 7 4 2 3 2 1 2 2 3 3 6 5 4 7 5 6 7 5 3 7 5 4 4 3 4 6 6 4 1 2 7 8 8 8 11 12 10 8 9 9 10 10 9 9 10 9 9 8 8 8 8
9 5 10 4 2 3 1 2 2 1 3 3 3 5 4 4 4 5 5 6 5 4 5 5 7 8 9 5 3 3 4 3 3 3 4 6 7 8 8 8 8 8 8 6 7 8 9 9 8 8 8 8 7 7
3 8 3 4 2 3 1 1 3 3 3 3 4 4 2 3 4 4 4 5 4 4 5 6 9 9 9 11 9 7 5 6 8 6 8 8 10 9 9 8 7 7 7 6 6 7 7 6 5 6 7 6 6 7
6 3 2 3 2 4 3 2 2 3 3 5 4 3 2 3 3 4 3 2 2 4 7 7 11 11 7 8 5 8 7 7 6 6 6 5 6 6 6 8 8 7 7 6 5 5 5 3 5 6 6 6 7 7
2 3 4 3 2 3 4 4 2 3 2 3 4 4 4 4 5 3 2 3 4 7 9 12 10 9 6 9 8 8 8 4 4 5 5 5 6 7 7 8 8 8 7 5 5 5 5 4 3 5 6 6 6 6
3 4 3 4 1 2 3 4 4 3 3 3 4 3 4 4 3 3 4 5 7 8 9 9 8 7 6 6 5 6 9 7 5 6 7 6 3 4 5 6 8 9 8 8 9 6 5 4 4 5 5 5 6 7
0 2 1 1 1 2 2 2 3 3 2 3 3 3 2 3 2 1 1 6 6 6 9 8 7 7 5 5 7 7 8 6 3 6 7 8 8 6 6 7 7 8 10 8 7 7 7 5 5 4 3 3 3 3
2 3 1 1 1 1 1 0 1 1 1 1 2 3 2 2 2 1 2 2 3 5 6 5 5 4 4 5 5 5 5 7 8 7 5 7 8 8 7 6 7 7 8 9 7 7 8 8 7 6 5 4 5 4
3 3 4 2 2 1 2 2 2 3 2 2 2 2 3 2 2 1 2 3 3 0 3 3 4 3 3 4 5 5 3 3 2 2 3 6 7 8 8 6 6 7 7 7 8 7 6 6 6 6 7 6 6 6
4 3 3 3 2 3 4 4 3 3 2 3 2 2 4 3 2 7 6 3 3 3 3 1 2 1 2 4 6 7 7 6 4 7 7 6 5 6 9 8 8 8 8 8 6 6 7 5 5 6 7 7 6 7
3 5 3 3 3 4 3 5 3 3 3 3 2 3 5 7 7 4 5 5 5 7 6 1 1 3 1 2 4 6 7 7 7 6 4 5 5 7 7 8 8 8 8 8 9 10 9 5 5 5 7 6 6 6
4 4 2 3 4 4 5 3 3 2 3 4 4 5 10 9 8 6 7 6 4 4 5 5 4 4 4 3 1 1 3 5 7 7 5 3 4 5 6 6 6 6 7 8 8 9 9 9 8 8 9 9 10 9
5 7 5 5 4 2 2 4 3 4 5 5 9 8 8 7 7 2 4 4 4 5 4 5 5 4 5 5 5 4 4 5 4 5 7 5 5 6 6 5 5 5 6 7 8 9 10 10 9 9 8 9 10 10
2 3 3 1 2 3 3 3 2 4 3 4 9 11 10 7 4 3 2 4 3 2 3 4 6 6 7 6 5 4 4 6 6 6 6 7 7 6 5 5 6 6 8 7 8 8 10 12 10 11 10 10 10 11
Wind_Direction
346 351 350 347 344 344 344 344 343 344 344 7 7 11 11 179 171 151 181 191 234 274 282 258 291 25 8 306 188 124 165 196 185 193 204 196 226 209 235 244 214 196 181 202 200 224 244 159 154 190 192 186 204 198
345 348 346 343 342 344 344 345 348 353 1 35 14 19 23 157 164 105 49 359 295 250 290 327 281 271 217 310 319 327 38 143 302 197 201 211 216 201 212 224 238 231 220 222 212 230 85 183 176 215 198 199 193 196
344 346 346 342 341 342 344 346 355 359 4 11 8 21 54 111 121 123 128 336 352 323 280 271 260 292 190 228 198 304 205 5 125 20 298 242 214 201 214 222 220 233 236 240 221 234 229 200 229 254 218 214 186 201
345 343 344 342 340 342 345 348 357 3 5 10 10 14 57 88 315 14 20 126 255 309 293 304 340 275 204 196 225 225 121 116 57 276 266 242 238 199 221 275 229 221 204 227 242 248 250 239 224 232 207 182 178 188
343 346 345 344 341 341 345 347 347 353 360 3 13 45 75 77 59 49 52 345 331 333 310 295 307 271 325 298 206 196 190 137 22 277 255 218 215 241 202 252 235 225 218 222 233 214 232 218 210 203 199 202 193 173
341 340 343 344 341 340 345 343 341 340 345 348 340 352 353 358 341 316 280 148 161 201 277 293 332 261 26 53 166 179 184 158 220 236 250 244 236 234 227 233 239 180 145 169 289 320 306 287 231 202 207 199 188 182
343 337 337 339 338 337 336 335 334 332 336 338 332 312 322 331 316 324 319 319 5 229 268 288 306 328 311 144 138 154 179 198 216 231 226 256 220 194 232 233 239 225 223 251 295 327 287 257 254 204 209 205 190 195
339 339 334 332 332 331 330 329 328 327 331 332 324 311 310 342 196 236 234 312 163 283 260 292 285 294 225 242 204 178 183 201 219 241 231 209 180 223 246 248 272 269 270 270 277 299 269 277 273 242 201 179 176 198
336 338 337 331 329 326 323 324 327 328 329 325 318 319 331 36 317 290 312 52 57 295 305 298 297 304 335 215 66 306 186 210 220 222 228 185 184 222 233 244 261 287 264 283 284 289 279 251 248 224 195 198 190 192
334 334 334 331 323 320 320 324 327 327 327 327 15 18 308 25 311 305 213 283 147 230 224 249 242 249 256 231 196 208 198 228 220 213 172 214 231 245 230 221 257 279 265 254 260 269 253 236 230 204 195 183 168 164
329 329 329 327 324 317 314 320 330 333 349 19 9 341 299 306 285 63 339 338 314 271 207 259 253 264 214 240 239 209 212 232 233 186 219 209 233 221 211 246 268 281 256 244 254 262 265 250 214 190 160 141 128 143
326 325 325 325 324 317 318 328 331 325 268 290 302 283 283 342 15 16 347 317 318 317 302 301 289 271 261 161 229 241 226 213 238 144 211 226 202 245 281 291 298 308 307 338 276 248 240 163 186 154 127 125 120 112
323 323 324 324 322 315 329 333 333 323 344 207 266 348 359 354 24 7 359 351 319 327 300 317 314 278 258 210 262 288 246 234 154 208 209 53 30 135 3 337 321 331 320 210 76 47 100 80 72 110 113 104 110 118
323 323 323 322 314 329 332 336 337 4 333 42 12 25 25 12 332 297 294 295 283 262 296 309 289 256 292 312 292 283 298 278 288 358 31 12 45 134 5 293 309 12 117 88 51 336 86 76 79 74 73 110 108 102
325 322 320 309 331 334 335 335 340 357 43 51 33 17 352 308 271 269 272 280 274 275 303 296 265 261 342 311 357 295 310 332 21 345 333 2 60 160 278 314 12 36 92 102 127 121 76 82 77 91 83 72 83 93
327 322 304 329 333 332 331 334 353 4 60 61 72 332 296 308 314 314 318 308 320 312 291 252 320 357 350 329 317 356 317 8 322 318 20 41 47 53 90 71 43 51 54 65 61 59 58 56 62 58 53 49 57 75
323 250 317 326 327 327 333 344 4 38 66 26 347 271 270 272 267 293 304 294 324 322 354 27 13 346 299 339 355 16 342 305 322 11 32 33 31 42 55 59 48 56 56 59 66 62 65 66 63 56 48 29 31 34
260 298 317 317 327 314 337 18 48 28 28 359 323 339 306 266 290 312 322 319 329 352 3 39 327 2 6 346 334 318 287 305 12 11 10 11 20 21 45 49 46 53 64 65 63 61 56 56 57 55 51 41 52 39
290 299 300 309 318 331 357 11 13 11 315 307 289 295 301 287 260 290 312 327 282 313 65 15 22 6 1 323 335 333 8 30 15 346 7 14 24 38 44 45 41 46 50 50 55 59 61 59 58 49 46 46 55 46
311 308 320 332 351 340 354 9 20 331 333 334 295 329 311 321 316 323 6 3 356 15 33 31 1 347 303 301 315 309 314 312 341 360 28 18 20 35 41 46 47 54 57 61 57 49 62 58 49 51 46 45 47 42
330 334 339 357 31 43 88 342 339 333 316 317 332 335 311 332 357 2 7 342 36 30 358 342 333 331 327 295 345 325 24 22 5 8 29 31 12 32 44 42 53 60 61 54 54 56 55 51 40 40 44 47 46 49
287 349 329 346 4 347 57 53 309 318 286 306 321 333 341 4 344 9 322 31 45 6 350 321 326 321 327 348 358 18 352 39 52 44 34 33 35 32 34 25 36 46 50 44 45 51 59 54 54 59 58 57 54 52
323 6 340 340 340 18 292 356 343 10 328 333 338 338 5 3 348 314 60 21 27 358 342 334 328 322 307 327 358 37 30 61 58 41 33 42 46 41 44 40 34 35 45 44 38 53 63 46 56 60 64 55 52 45
355 23 6 3 357 311 320 354 355 348 339 9 348 337 5 347 333 48 9 338 354 343 358 359 355 350 1 13 22 7 3 6 75 63 28 35 46 40 39 42 39 36 19 16 28 47 52 58 53 57 46 48 52 49
21 334 29 336 348 344 10 354 358 16 347 3 346 346 0 338 9 43 9 350 345 354 355 354 352 357 350 338 354 11 14 1 22 67 25 6 27 88 68 62 55 41 17 29 29 22 29 45 52 60 61 38 36 28
133 290 63 276 305 357 337 334 5 355 333 331 354 296 334 323 38 87 313 332 332 346 346 343 341 330 342 6 349 357 354 344 348 64 37 24 23 20 37 40 34 34 11 358 4 21 30 25 32 41 56 69 68 12
214 240 195 233 272 225 199 296 260 294 353 328 323 325 322 312 248 170 324 336 309 343 332 335 331 324 328 332 331 348 17 39 71 84 84 64 54 43 37 38 21 349 336 352 6 27 29 33 35 32 28 20 19 359
221 171 193 211 193 232 216 197 232 224 216 177 250 267 297 241 247 67 315 327 283 356 52 5 335 5 27 20 1 349 357 334 176 148 129 90 66 50 28 22 10 324 342 358 348 357 11 20 21 19 24 28 29 23
205 187 166 221 190 206 225 209 217 210 192 184 208 246 248 251 289 303 304 268 229 271 302 78 225 207 82 61 43 29 22 14 58 72 58 35 15 20 6 3 4 4 360 357 11 17 356 353 19 19 19 15 17 24
209 176 166 190 190 223 227 193 214 210 201 215 231 264 266 267 272 273 261 258 249 242 243 217 131 239 223 79 66 44 33 41 38 34 35 25 359 331 343 354 0 1 358 6 9 7 2 17 24 28 39 32 18 15
139 167 177 197 227 229 235 233 243 233 224 232 235 248 269 294 298 254 234 245 246 214 185 172 142 117 89 44 353 194 92 47 47 49 32 17 360 356 354 353 356 2 8 16 21 25 24 36 33 30 25 23 21 18
183 194 196 210 242 246 215 224 229 243 252 247 266 268 273 282 290 258 18 315 238 206 197 181 152 120 109 113 110 84 65 94 65 45 40 34 24 13 10 12 11 26 30 34 34 33 34 40 39 35 29 22 18 16
209 196 204 240 255 250 217 211 251 257 241 252 270 278 285 279 250 28 34 15 320 272 134 107 104 104 103 100 99 100 93 89 79 53 41 40 29 13 28 33 35 37 46 52 49 43 43 44 44 41 36 31 25 19